Вернуться в каталог

COSMOS 2251 DEB

АктивенLEO
NORAD 40238·DEBRIS·🇷🇺 Russia

Запущен Jun 16, 1993 с Plesetsk Cosmodrome

Loading…

Ближайшие Пролёты (ближайшие 24 часа)

TLE

УстаревшееSource: Space-Track

Эпоха: Aug 26, 2026, 18:04 UTC

1 40238U 93036BVT 26238.75316845  .00000887  00000-0  92198-3 0  9993
2 40238  73.9896  28.6466 0547022 311.6265  43.9170 13.25841446574421

Отслеживайте COSMOS 2251 DEB в реальном времени с AllMySat

Download on the App Store